Вернуться в каталог

FENGYUN 1C DEB

АктивенPO
NORAD 36269·DEBRIS·🇨🇳 China

Запущен May 10, 1999 с Taiyuan Satellite Launch Center

Loading…

Ближайшие Пролёты (ближайшие 24 часа)

TLE

СвежийSource: Space-Track

Эпоха: Sep 14, 2026, 04:02 UTC

1 36269U 99025DWW 26257.16854963  .00000688  00000-0  22556-3 0  9990
2 36269  99.1368 216.4513 0230474 205.3312 153.6424 14.28036387916465

Отслеживайте FENGYUN 1C DEB в реальном времени с AllMySat

Download on the App Store